This demonstration page uses our WeatherBlox Daily Observations layout. Learn more.

Left ArrowRight Arrow

39.51506, -84.39828

Hourly Observations for May 2, 2020

Temp ( °F °C ) Dew Point ( °F °C ) Humidity (%) Winds ( mph kmh ) Pressure ( in mb ) Visibility ( mi km ) Precip ( " mm )
12:15 am 00:15 Clear 53 11.4 47 8.3 81 81 Calm 30.07 1018 N/A 0 0
12:35 am 00:35 undefined 51 10.7 48 8.7 88 88 Calm 30.07 1018 N/A 0 0
12:55 am 00:55 undefined 50 9.8 47 8.1 89 89 Calm 30.06 1018 N/A 0 0
1:15 am 01:15 undefined 51 10.3 48 8.9 91 91 Calm 30.07 1018 N/A 0 0
1:35 am 01:35 undefined 50 10.1 47 8.5 90 90 Calm 30.08 1019 N/A 0 0
1:55 am 01:55 undefined 50 9.9 47 8.3 90 90 Calm 30.08 1019 N/A 0 0
2:15 am 02:15 undefined 49 9.7 47 8.3 91 91 Calm 30.08 1019 N/A 0 0
2:35 am 02:35 undefined 50 10 47 8.2 89 89 Calm 30.09 1019 N/A 0 0
2:55 am 02:55 undefined 50 9.9 47 8.3 90 90 Calm 30.07 1018 N/A 0 0
3:15 am 03:15 undefined 49 9.3 47 8.1 92 92 Calm 30.07 1018 N/A 0 0
3:35 am 03:35 undefined 47 8.6 46 7.8 95 95 Calm 30.06 1018 N/A 0 0
3:55 am 03:55 undefined 48 9 47 8.5 97 97 Calm 30.06 1018 N/A 0 0
4:15 am 04:15 Mostly Cloudy 48 9 47 8.2 95 95 Calm 30.06 1018 N/A 0 0
4:35 am 04:35 undefined 49 9.3 47 8.5 95 95 Calm 30.07 1018 N/A 0 0
4:55 am 04:55 Cloudy 50 9.9 48 8.8 93 93 NE 5 7 30.07 1018 N/A 0 0
5:15 am 05:15 Cloudy 50 9.8 48 9 95 95 Calm 30.08 1019 N/A 0 0
5:35 am 05:35 Cloudy 51 10.3 48 9 92 92 Calm 30.08 1019 N/A 0 0
5:55 am 05:55 Cloudy 51 10.3 49 9.2 93 93 Calm 30.08 1019 N/A 0 0
6:15 am 06:15 Cloudy 51 10.4 49 9.4 94 94 Calm 30.08 1019 N/A 0 0
6:35 am 06:35 Cloudy 51 10.6 49 9.6 94 94 Calm 30.08 1019 N/A 0 0
6:55 am 06:55 Cloudy 52 11 49 9.4 90 90 Calm 30.08 1019 N/A 0 0
7:15 am 07:15 Cloudy 53 11.4 49 9.4 88 88 Calm 30.09 1019 N/A 0 0
7:35 am 07:35 Cloudy 55 12.5 49 9.5 82 82 SSE 3 6 30.08 1019 N/A 0 0
7:55 am 07:55 Cloudy 55 12.6 49 9.4 81 81 SSE 3 6 30.08 1019 N/A 0 0
8:15 am 08:15 Cloudy 55 12.9 49 9.4 79 79 Calm 30.08 1019 N/A 0 0
8:35 am 08:35 Cloudy 56 13.4 49 9.3 76 76 S 7 11 30.07 1018 N/A 0 0
8:55 am 08:55 Partly Cloudy 58 14.6 50 9.8 73 73 S 7 11 30.07 1018 N/A 0 0
9:15 am 09:15 Mostly Cloudy 60 15.7 49 9.5 67 67 S 12 19 30.06 1018 N/A 0 0
9:35 am 09:35 Cloudy 62 16.7 49 9.5 63 63 S 10 17 30.06 1018 N/A 0 0
9:55 am 09:55 Mostly Cloudy 64 17.7 48 9.1 57 57 SSW 16 26 30.05 1018 N/A 0 0
10:15 am 10:15 Sunny 64 17.9 48 9.1 57 57 S 14 22 30.04 1017 N/A 0 0
10:35 am 10:35 Sunny 66 18.9 50 9.9 56 56 S 13 20 30.03 1017 N/A 0 0
10:55 am 10:55 Sunny 67 19.5 49 9.5 53 53 S 14 22 30.02 1016 N/A 0 0
11:15 am 11:15 Sunny 69 20.3 50 10.1 52 52 SSW 13 20 30 1016 N/A 0 0
11:35 am 11:35 Sunny 70 21.1 51 10.5 51 51 S 13 20 29.99 1016 N/A 0 0
11:55 am 11:55 Sunny 72 22.4 52 11 49 49 SSW 10 17 29.98 1015 N/A 0 0
12:15 pm 12:15 Sunny 73 22.9 52 10.9 47 47 S 13 20 29.97 1015 N/A 0 0
12:35 pm 12:35 Sunny 75 24.1 53 11.7 46 46 SSW 15 24 29.96 1014 N/A 0 0
12:55 pm 12:55 Sunny 76 24.5 53 11.9 45 45 SSW 17 28 29.94 1014 N/A 0 0
1:15 pm 13:15 Sunny 76 24.7 53 11.7 44 44 S 15 24 29.93 1014 N/A 0 0
1:35 pm 13:35 Sunny 77 25.2 54 12.3 45 45 SSW 16 26 29.92 1013 N/A 0 0
1:55 pm 13:55 Sunny 78 25.8 55 12.6 44 44 SSW 17 28 29.92 1013 N/A 0 0
2:15 pm 14:15 Sunny 77 25 55 12.6 46 46 SSW 13 20 29.91 1013 N/A 0 0
2:35 pm 14:35 Sunny 80 26.7 56 13.1 43 43 SSW 14 22 29.9 1013 N/A 0 0
2:55 pm 14:55 Sunny 81 27.2 57 13.7 43 43 SSW 17 28 29.9 1012 N/A 0 0
3:15 pm 15:15 Sunny 81 27.2 56 13.3 42 42 SSW 13 20 29.89 1012 N/A 0 0
3:35 pm 15:35 Mostly Cloudy 82 27.6 56 13.3 41 41 SW 15 24 29.89 1012 N/A 0 0
3:55 pm 15:55 Partly Cloudy 80 26.7 55 12.8 42 42 SW 20 31 29.88 1012 N/A 0 0
4:15 pm 16:15 Partly Cloudy 83 28.2 58 14.5 43 43 SW 18 30 29.88 1012 N/A 0 0
4:35 pm 16:35 Cloudy 80 26.9 56 13.4 43 43 SW 15 24 29.87 1011 N/A 0 0
4:55 pm 16:55 Partly Cloudy 83 28.3 57 13.7 41 41 WSW 18 30 29.87 1011 N/A 0 0
5:15 pm 17:15 Partly Cloudy 82 27.7 56 13.5 42 42 SW 21 33 29.86 1011 N/A 0 0
5:35 pm 17:35 Partly Cloudy 82 27.9 57 14 43 43 WSW 21 33 29.87 1011 N/A 0 0
5:55 pm 17:55 Sunny 81 27.2 56 13.1 42 42 SW 24 39 29.87 1011 N/A 0 0
6:15 pm 18:15 Sunny 82 27.6 56 13.5 42 42 SW 22 35 29.87 1011 N/A 0 0
6:35 pm 18:35 Sunny 80 26.8 56 13.5 44 44 WSW 14 22 29.87 1011 N/A 0 0
6:55 pm 18:55 Mostly Cloudy 80 26.7 56 13.6 44 44 WSW 15 24 29.87 1011 N/A 0 0
7:15 pm 19:15 Sunny 79 26.3 57 13.9 46 46 SW 12 19 29.86 1011 N/A 0 0
7:35 pm 19:35 Sunny 79 26.1 58 14.3 48 48 SW 10 17 29.86 1011 N/A 0 0
7:55 pm 19:55 Sunny 78 25.5 58 14.3 50 50 SW 14 22 29.86 1011 N/A 0 0
8:15 pm 20:15 Partly Cloudy 78 25.3 58 14.4 51 51 SW 14 22 29.87 1012 N/A 0 0
8:35 pm 20:35 Mostly Cloudy 77 24.9 58 14.5 53 53 WSW 9 15 29.87 1012 N/A 0 0
8:55 pm 20:55 Partly Cloudy 74 23.3 58 14.7 59 59 SW 9 15 29.88 1012 N/A 0 0
9:15 pm 21:15 Clear 73 22.7 59 14.9 62 62 SW 9 15 29.88 1012 N/A 0 0
9:35 pm 21:35 Clear 72 22.4 59 15 63 63 SSW 8 13 29.88 1012 N/A 0 0
9:55 pm 21:55 Clear 70 21.2 59 14.9 67 67 SW 8 13 29.89 1012 N/A 0 0
10:15 pm 22:15 Clear 70 21.2 59 14.8 67 67 SW 6 9 29.9 1013 N/A 0 0
10:35 pm 22:35 Clear 69 20.4 59 14.8 70 70 SW 7 11 29.9 1013 N/A 0 0
10:55 pm 22:55 Clear 69 20.3 59 14.9 71 71 SW 8 13 29.9 1013 N/A 0 0
11:15 pm 23:15 Clear 68 20.2 59 14.9 72 72 SW 8 13 29.9 1013 N/A 0 0
11:35 pm 23:35 Clear 67 19.7 59 15 74 74 SSW 8 13 29.91 1013 N/A 0 0
11:55 pm 23:55 Clear 67 19.4 59 14.9 75 75 SW 6 9 29.91 1013 N/A 0 0

Powered by AerisWeather